#timestamp,LO_Frequency,Hit,StdDev 
1589152675.5,286047019.3,P
1589152695.3,286047022.0,P
1589152715.1,286047021.7,P
1589152735.9,286047021.6,Y
1589152755.7,286047000.3,P
1589152775.6,286046999.8,N
1589152795.4,286046999.9,N
1589152815.2,286047000.1,N
1589152835.1,286047002.3,N
1589152836.0,286047002.3,N
1589152855.8,286047002.3,N
1589152875.6,286047002.0,N
1589152895.5,286047001.4,N
1589152915.3,286047004.3,N
1589152935.2,286047004.2,N
1589152955.9,286047003.1,N
1589152975.7,286047001.3,N
1589152995.6,286047001.4,N
1589153015.4,286047001.4,N
1589153035.2,286047004.4,N
1589153055.1,286047002.5,N
1589153056.0,286047002.5,N
1589153075.8,286047002.4,N
1589153095.7,286047002.5,N
1589153115.5,286047001.8,N
1589153135.3,286047003.8,N
1589153155.2,286047001.3,N
1589153175.0,286047004.1,N
1589153175.9,286047004.1,N
1589153195.7,286047003.6,N
1589153215.6,286047003.0,N
1589153235.4,286047005.6,N
1589153255.3,286047005.8,N
1589153275.1,286047004.6,N
1589153276.0,286047004.6,N
1589153295.8,286047005.1,Y
1589153315.7,286047001.9,P
1589153335.5,286047004.0,P
1589153355.4,286047003.7,P
1589153375.2,286047003.6,Y
1589153395.0,286047000.4,P
1589153395.9,286047000.4,N
1589153415.8,286046999.7,N
1589153435.6,286047011.9,Y
1589153455.5,286047000.0,P
1589153475.3,286046999.9,N
1589153495.1,286047000.4,N
1589153515.9,286047000.7,N
1589153535.7,286047000.2,N
1589153555.5,286047001.0,N
1589153575.4,286046999.7,N
1589153595.2,286046999.8,N
1589153615.1,286047002.4,Y
1589153616.0,286047002.4,P
1589153635.8,286047000.3,N
1589153655.6,286047000.2,N
1589153675.5,286047001.8,N
1589153695.3,286047002.8,Y
1589153715.2,286047000.2,P
1589153735.9,286047000.3,N
1589153755.7,286047001.2,P
1589153775.6,286047001.8,Y
1589153795.4,286047004.3,P
1589153815.3,286047002.0,N
1589153835.1,286047000.4,N
1589153836.0,286047000.4,N
1589153855.8,286047000.6,N
1589153875.7,286047000.3,N
1589153895.5,286047004.4,Y
1589153915.4,286047001.3,P
1589153935.2,286047005.4,P
1589153955.0,286047005.7,N
1589153955.9,286047005.7,N
1589153975.8,286047007.4,Y
1589153995.6,286047003.5,P
1589154015.4,286047005.9,P
1589154035.3,286047003.4,P
1589154055.1,286047003.6,Y
1589154075.9,286047001.1,P
1589154095.7,286047001.0,N
1589154115.5,286047000.0,N
1589154135.4,286046999.9,N
1589154155.2,286047000.6,N
1589154175.1,286047000.2,N
1589154176.0,286047000.2,N
1589154195.8,286047000.2,N
1589154215.6,286047002.0,N
1589154235.5,286047004.4,Y
1589154255.3,286047004.0,P
1589154275.1,286047004.2,N
1589154295.9,286047004.4,N
1589154315.7,286047001.6,N
1589154335.6,286047002.0,N
1589154355.4,286047001.9,N
1589154375.2,286047002.7,N
1589154395.1,286047001.0,N
1589154396.0,286047001.0,N
1589154415.8,286047000.4,N
1589154465.7,286047000.4,E
1589154475.6,286047000.6,N
1589154495.4,286047000.3,P
1589154515.3,286047002.6,P
1589154535.1,286047000.4,N
1589154555.9,286047000.3,N
1589154575.7,286046999.8,N
1589154595.5,286046999.7,N
1589154615.4,286047002.7,N
1589154635.2,286047001.9,N
1589154655.0,286047001.5,N
1589154655.9,286047001.5,N
1589154675.8,286047003.4,Y
1589154695.6,286047004.1,P
1589154715.5,286047001.4,N
1589154735.3,286047004.4,P
1589154755.1,286047004.3,N
1589154775.9,286047004.4,N
1589154795.7,286047004.2,N
1589154815.5,286047001.3,N
1589154835.4,286047004.3,N
1589154855.2,286047001.7,N
1589154875.1,286047003.9,N
1589154876.0,286047003.9,N
1589154895.8,286047004.1,Y
1589154915.6,286047000.2,P
1589154935.5,286047000.2,N
1589154955.3,286047000.1,N
1589154975.1,286046999.7,N
1589154995.9,286047002.5,N
1589155015.7,286047002.5,N
1589155035.6,286047002.2,N
1589155055.4,286047002.1,N
1589155075.2,286047001.5,N
1589155095.1,286047001.5,N
1589155096.0,286047001.5,N
1589155115.8,286047001.5,N
1589155135.7,286047003.8,Y
1589155155.5,286046999.9,P
1589155175.3,286047002.4,P
1589155195.2,286046999.7,N
